| time (UTC) | temp F | wind direction | speed MPH | gust MPH | rain 1hr in | rain 24hr in | rain mn in | humidity % | barometer mb |
| 20260507193015 | 74 | 6 | 0.0 | 5.0 | 0.00 | 0.00 | 0.00 | 44 | 991.3 |
| 20260507192036 | 74 | 90 | 0.0 | 2.0 | 0.00 | 0.00 | 0.00 | 44 | 991.4 |
| 20260507191035 | 74 | 354 | 2.0 | 3.0 | 0.00 | 0.00 | 0.00 | 46 | 991.6 |
| 20260507190036 | 73 | 32 | 0.0 | 2.0 | 0.00 | 0.00 | 0.00 | 46 | 991.6 |
| 20260507185015 | 73 | 66 | 2.0 | 9.0 | 0.00 | 0.00 | 0.00 | 48 | 991.6 |
| 20260507184016 | 72 | 0.0 | 1.0 | 0.00 | 0.00 | 0.00 | 49 | 991.8 | |
| 20260507183016 | 72 | 78 | 2.0 | 7.0 | 0.00 | 0.00 | 0.00 | 49 | 992.0 |
| 20260507182015 | 71 | 294 | 3.0 | 5.0 | 0.00 | 0.00 | 0.00 | 51 | 992.2 |
| 20260507181016 | 71 | 10 | 0.0 | 2.0 | 0.00 | 0.00 | 0.00 | 50 | 992.3 |
| 20260507180015 | 70 | 94 | 1.0 | 3.0 | 0.00 | 0.00 | 0.00 | 50 | 992.5 |
| 20260507175015 | 70 | 37 | 1.0 | 5.0 | 0.00 | 0.00 | 0.00 | 51 | 992.5 |
| 20260507174015 | 70 | 38 | 1.0 | 3.0 | 0.00 | 0.00 | 0.00 | 51 | 992.7 |
| 20260507173015 | 69 | 323 | 2.0 | 5.0 | 0.00 | 0.00 | 0.00 | 52 | 993.1 |
| 20260507172015 | 69 | 1 | 0.0 | 2.0 | 0.00 | 0.00 | 0.00 | 54 | 993.2 |
| 20260507171015 | 69 | 75 | 1.0 | 4.0 | 0.00 | 0.00 | 0.00 | 54 | 993.7 |
| 20260507170015 | 69 | 0.0 | 0.0 | 0.00 | 0.00 | 0.00 | 55 | 994.0 | |
| 20260507165015 | 68 | 357 | 3.0 | 6.0 | 0.00 | 0.00 | 0.00 | 57 | 994.0 |
| 20260507164016 | 67 | 74 | 1.0 | 2.0 | 0.00 | 0.00 | 0.00 | 56 | 994.1 |
| 20260507163015 | 67 | 81 | 1.0 | 4.0 | 0.00 | 0.00 | 0.00 | 58 | 994.2 |
| 20260507162015 | 66 | 340 | 0.0 | 2.0 | 0.00 | 0.00 | 0.00 | 57 | 994.1 |
| 20260507161016 | 66 | 5 | 1.0 | 5.0 | 0.00 | 0.00 | 0.00 | 57 | 994.1 |
| 20260507160015 | 67 | 287 | 0.0 | 2.0 | 0.00 | 0.00 | 0.00 | 57 | 994.1 |
| 20260507155015 | 67 | 0.0 | 0.0 | 0.00 | 0.00 | 0.00 | 59 | 994.1 | |
| 20260507154015 | 66 | 0.0 | 0.0 | 0.00 | 0.01 | 0.00 | 61 | 994.3 | |
| 20260507153015 | 66 | 5 | 1.0 | 3.0 | 0.00 | 0.02 | 0.00 | 60 | 994.3 |
| 20260507152015 | 64 | 0.0 | 0.0 | 0.00 | 0.02 | 0.00 | 64 | 994.4 | |
| 20260507151015 | 64 | 352 | 0.0 | 2.0 | 0.00 | 0.02 | 0.00 | 64 | 994.5 |
| 20260507150015 | 64 | 0.0 | 1.0 | 0.00 | 0.02 | 0.00 | 67 | 994.7 | |
| 20260507145015 | 62 | 71 | 0.0 | 2.0 | 0.00 | 0.02 | 0.00 | 70 | 994.7 |
| 20260507144015 | 62 | 80 | 1.0 | 6.0 | 0.00 | 0.02 | 0.00 | 74 | 994.7 |
| 20260507143015 | 61 | 68 | 0.0 | 1.0 | 0.00 | 0.02 | 0.00 | 73 | 994.7 |
| 20260507142015 | 61 | 0.0 | 0.0 | 0.00 | 0.02 | 0.00 | 73 | 994.8 | |
| 20260507141016 | 60 | 0.0 | 0.0 | 0.00 | 0.02 | 0.00 | 74 | 994.9 | |
| 20260507140015 | 60 | 0.0 | 0.0 | 0.00 | 0.02 | 0.00 | 73 | 995.1 | |
| 20260507135015 | 60 | 0.0 | 0.0 | 0.00 | 0.02 | 0.00 | 76 | 995.1 | |
| 20260507134015 | 60 | 0.0 | 0.0 | 0.00 | 0.02 | 0.00 | 78 | 995.2 | |
| 20260507133015 | 60 | 0.0 | 0.0 | 0.00 | 0.02 | 0.00 | 76 | 995.2 | |
| 20260507132016 | 59 | 0.0 | 0.0 | 0.00 | 0.02 | 0.00 | 81 | 995.1 | |
| 20260507131015 | 57 | 0.0 | 0.0 | 0.00 | 0.02 | 0.00 | 86 | 995.1 | |
| 20260507130016 | 56 | 0.0 | 0.0 | 0.00 | 0.02 | 0.00 | 89 | 995.0 | |
| 20260507125015 | 55 | 0.0 | 0.0 | 0.00 | 0.02 | 0.00 | 90 | 994.9 | |
| 20260507124016 | 54 | 0.0 | 0.0 | 0.00 | 0.02 | 0.00 | 91 | 994.8 | |
| 20260507123016 | 54 | 0.0 | 0.0 | 0.00 | 0.02 | 0.00 | 93 | 994.9 | |
| 20260507122015 | 53 | 0.0 | 0.0 | 0.00 | 0.02 | 0.00 | 93 | 994.8 | |
| 20260507121015 | 53 | 0.0 | 0.0 | 0.00 | 0.02 | 0.00 | 94 | 994.7 | |
| 20260507120015 | 52 | 0.0 | 0.0 | 0.00 | 0.02 | 0.00 | 94 | 994.4 | |
| 20260507115015 | 52 | 0.0 | 0.0 | 0.00 | 0.02 | 0.00 | 95 | 994.4 | |
| 20260507114015 | 52 | 0.0 | 0.0 | 0.00 | 0.02 | 0.00 | 94 | 994.3 | |
| 20260507113015 | 52 | 0.0 | 0.0 | 0.00 | 0.02 | 0.00 | 94 | 994.1 | |
| 20260507112015 | 52 | 290 | 0.0 | 1.0 | 0.00 | 0.02 | 0.00 | 94 | 994.2 |
| 20260507111015 | 53 | 294 | 0.0 | 2.0 | 0.00 | 0.02 | 0.00 | 94 | 994.0 |
| 20260507110016 | 53 | 0.0 | 1.0 | 0.00 | 0.02 | 0.00 | 94 | 993.7 | |
| 20260507105035 | 52 | 288 | 0.0 | 1.0 | 0.00 | 0.02 | 0.00 | 95 | 993.6 |
| 20260507104016 | 52 | 0.0 | 0.0 | 0.00 | 0.02 | 0.00 | 94 | 993.4 | |
| 20260507103015 | 52 | 0.0 | 0.0 | 0.00 | 0.02 | 0.00 | 94 | 993.1 | |
| 20260507102016 | 52 | 0.0 | 0.0 | 0.00 | 0.02 | 0.00 | 93 | 993.0 | |
| 20260507101015 | 53 | 0.0 | 0.0 | 0.00 | 0.02 | 0.00 | 93 | 993.0 | |
| 20260507100015 | 53 | 0.0 | 0.0 | 0.00 | 0.02 | 0.00 | 93 | 992.8 | |
| 20260507095016 | 53 | 0.0 | 0.0 | 0.00 | 0.02 | 0.00 | 92 | 992.9 | |
| 20260507094035 | 53 | 0.0 | 0.0 | 0.00 | 0.02 | 0.00 | 92 | 992.5 | |
| 20260507093016 | 53 | 0.0 | 1.0 | 0.00 | 0.02 | 0.00 | 92 | 992.6 | |
| 20260507092016 | 54 | 70 | 0.0 | 1.0 | 0.00 | 0.02 | 0.00 | 92 | 992.5 |
| 20260507091015 | 54 | 0.0 | 0.0 | 0.00 | 0.02 | 0.00 | 92 | 992.5 | |
| 20260507090035 | 54 | 0.0 | 0.0 | 0.00 | 0.02 | 0.00 | 92 | 992.5 | |
| 20260507085035 | 54 | 0.0 | 0.0 | 0.00 | 0.02 | 0.00 | 92 | 992.4 | |
| 20260507084015 | 54 | 0.0 | 0.0 | 0.00 | 0.02 | 0.00 | 92 | 992.5 | |
| 20260507083015 | 54 | 0.0 | 0.0 | 0.00 | 0.02 | 0.00 | 92 | 992.4 | |
| 20260507082015 | 54 | 6 | 0.0 | 1.0 | 0.00 | 0.02 | 0.00 | 91 | 992.5 |
| 20260507081015 | 54 | 0.0 | 0.0 | 0.00 | 0.02 | 0.00 | 91 | 992.3 | |
| 20260507080015 | 55 | 0.0 | 0.0 | 0.00 | 0.02 | 0.00 | 90 | 992.2 | |
| 20260507075015 | 55 | 0.0 | 1.0 | 0.00 | 0.02 | 0.00 | 90 | 992.0 | |
| 20260507074015 | 55 | 0.0 | 0.0 | 0.00 | 0.02 | 0.00 | 89 | 992.0 | |
| 20260507073015 | 55 | 0.0 | 0.0 | 0.00 | 0.02 | 0.00 | 89 | 992.0 | |
| 20260507072015 | 56 | 0.0 | 0.0 | 0.00 | 0.02 | 0.00 | 88 | 992.1 | |
| 20260507071035 | 56 | 346 | 1.0 | 3.0 | 0.00 | 0.02 | 0.00 | 87 | 992.1 |
| 20260507070016 | 56 | 0.0 | 0.0 | 0.00 | 0.02 | 0.00 | 86 | 992.1 | |
| 20260507065015 | 56 | 0.0 | 0.0 | 0.00 | 0.02 | 0.00 | 86 | 992.1 | |
| 20260507064035 | 56 | 78 | 0.0 | 2.0 | 0.00 | 0.02 | 0.00 | 86 | 992.0 |
| 20260507063015 | 56 | 0.0 | 0.0 | 0.00 | 0.02 | 0.00 | 85 | 991.8 | |
| 20260507062015 | 56 | 70 | 1.0 | 4.0 | 0.00 | 0.02 | 0.00 | 86 | 991.8 |
| 20260507061015 | 57 | 0.0 | 0.0 | 0.00 | 0.02 | 0.00 | 86 | 991.9 | |
| 20260507060015 | 57 | 71 | 1.0 | 5.0 | 0.00 | 0.02 | 0.00 | 86 | 991.7 |
| 20260507055055 | 57 | 0.0 | 1.0 | 0.00 | 0.02 | 0.00 | 86 | 991.7 | |
| 20260507054035 | 57 | 71 | 0.0 | 2.0 | 0.00 | 0.02 | 0.00 | 86 | 991.7 |
| 20260507053015 | 57 | 0.0 | 4.0 | 0.00 | 0.02 | 0.00 | 85 | 991.6 | |
| 20260507052015 | 57 | 74 | 0.0 | 2.0 | 0.00 | 0.02 | 0.00 | 85 | 991.7 |
| 20260507051035 | 58 | 75 | 0.0 | 1.0 | 0.00 | 0.02 | 0.00 | 85 | 991.8 |
| 20260507050015 | 58 | 14 | 0.0 | 1.0 | 0.00 | 0.02 | 0.02 | 84 | 991.8 |
| 20260507045016 | 58 | 70 | 0.0 | 1.0 | 0.00 | 0.02 | 0.02 | 84 | 991.8 |
| 20260507044016 | 58 | 77 | 1.0 | 6.0 | 0.00 | 0.02 | 0.02 | 84 | 991.9 |
| 20260507043016 | 58 | 0.0 | 0.0 | 0.00 | 0.02 | 0.02 | 84 | 991.9 | |
| 20260507042016 | 59 | 75 | 0.0 | 5.0 | 0.00 | 0.02 | 0.02 | 85 | 992.2 |
| 20260507041016 | 59 | 34 | 1.0 | 3.0 | 0.00 | 0.02 | 0.02 | 84 | 992.3 |
| 20260507040016 | 59 | 3 | 1.0 | 7.0 | 0.00 | 0.02 | 0.02 | 84 | 992.3 |
| 20260507035016 | 59 | 0.0 | 4.0 | 0.00 | 0.02 | 0.02 | 84 | 992.2 | |
| 20260507034016 | 59 | 55 | 0.0 | 3.0 | 0.00 | 0.02 | 0.02 | 84 | 992.3 |
| 20260507033016 | 59 | 32 | 1.0 | 4.0 | 0.00 | 0.02 | 0.02 | 84 | 992.1 |
| 20260507032016 | 59 | 0.0 | 0.0 | 0.00 | 0.02 | 0.02 | 84 | 992.1 | |
| 20260507031016 | 59 | 0.0 | 2.0 | 0.00 | 0.02 | 0.02 | 85 | 992.0 | |
| 20260507030016 | 59 | 0.0 | 0.0 | 0.00 | 0.02 | 0.02 | 85 | 991.7 | |
| 20260507025016 | 59 | 92 | 0.0 | 1.0 | 0.00 | 0.02 | 0.02 | 85 | 991.5 |
| 20260507024016 | 59 | 194 | 0.0 | 2.0 | 0.00 | 0.02 | 0.02 | 85 | 991.4 |
| 20260507023016 | 59 | 98 | 0.0 | 1.0 | 0.00 | 0.02 | 0.02 | 85 | 991.2 |
| 20260507022016 | 59 | 67 | 0.0 | 1.0 | 0.00 | 0.02 | 0.02 | 85 | 991.0 |
| 20260507021016 | 59 | 0.0 | 0.0 | 0.00 | 0.02 | 0.02 | 85 | 990.9 | |
| 20260507020016 | 59 | 349 | 1.0 | 5.0 | 0.00 | 0.02 | 0.02 | 86 | 990.7 |
| 20260507015016 | 59 | 87 | 0.0 | 1.0 | 0.00 | 0.02 | 0.02 | 86 | 990.5 |
| 20260507014016 | 59 | 0.0 | 1.0 | 0.00 | 0.02 | 0.02 | 86 | 990.2 | |
| 20260507013016 | 59 | 75 | 2.0 | 5.0 | 0.00 | 0.02 | 0.02 | 86 | 990.0 |
| 20260507012016 | 59 | 0.0 | 4.0 | 0.00 | 0.02 | 0.02 | 85 | 989.9 | |
| 20260507011016 | 59 | 80 | 0.0 | 5.0 | 0.00 | 0.02 | 0.02 | 85 | 989.7 |
| 20260507010016 | 59 | 0.0 | 0.0 | 0.00 | 0.02 | 0.02 | 86 | 989.6 | |
| 20260507005016 | 59 | 77 | 1.0 | 4.0 | 0.00 | 0.02 | 0.02 | 86 | 989.7 |
| 20260507004016 | 59 | 68 | 2.0 | 7.0 | 0.00 | 0.02 | 0.02 | 86 | 989.5 |
| 20260507003016 | 59 | 78 | 0.0 | 2.0 | 0.00 | 0.02 | 0.02 | 86 | 989.4 |
| 20260507002016 | 59 | 80 | 1.0 | 4.0 | 0.00 | 0.02 | 0.02 | 86 | 989.2 |
| 20260507001016 | 59 | 0.0 | 1.0 | 0.00 | 0.02 | 0.02 | 85 | 989.0 | |
| 20260507000016 | 60 | 301 | 0.0 | 1.0 | 0.00 | 0.02 | 0.02 | 85 | 989.0 |
| 20260506235016 | 60 | 0.0 | 0.0 | 0.00 | 0.02 | 0.02 | 85 | 989.1 | |
| 20260506234016 | 60 | 0.0 | 0.0 | 0.00 | 0.02 | 0.02 | 86 | 988.8 | |
| 20260506233036 | 60 | 73 | 0.0 | 2.0 | 0.00 | 0.02 | 0.02 | 86 | 989.0 |
| 20260506232016 | 59 | 0.0 | 5.0 | 0.00 | 0.02 | 0.02 | 86 | 988.7 | |
| 20260506231016 | 60 | 83 | 2.0 | 7.0 | 0.00 | 0.02 | 0.02 | 87 | 988.6 |
| 20260506230016 | 59 | 339 | 0.0 | 5.0 | 0.00 | 0.02 | 0.02 | 87 | 988.5 |
| 20260506225016 | 59 | 79 | 0.0 | 1.0 | 0.00 | 0.02 | 0.02 | 87 | 988.6 |
| 20260506224016 | 60 | 0.0 | 3.0 | 0.00 | 0.02 | 0.02 | 83 | 988.7 | |
| 20260506223016 | 61 | 0.0 | 0.0 | 0.00 | 0.02 | 0.02 | 78 | 988.5 | |
| 20260506222016 | 61 | 42 | 0.0 | 7.0 | 0.00 | 0.02 | 0.02 | 78 | 988.6 |
| 20260506221016 | 61 | 5 | 1.0 | 9.0 | 0.00 | 0.02 | 0.02 | 77 | 988.4 |
| 20260506220036 | 61 | 352 | 0.0 | 1.0 | 0.00 | 0.02 | 0.02 | 77 | 988.2 |
| 20260506215016 | 61 | 14 | 0.0 | 9.0 | 0.00 | 0.02 | 0.02 | 75 | 988.2 |
| 20260506214015 | 61 | 0.0 | 6.0 | 0.00 | 0.02 | 0.02 | 76 | 988.3 | |
| 20260506213044 | 61 | 347 | 0.0 | 5.0 | 0.00 | 0.02 | 0.02 | 76 | 988.3 |
| 20260506212016 | 61 | 15 | 0.0 | 3.0 | 0.00 | 0.02 | 0.02 | 76 | 988.3 |
| 20260506211016 | 61 | 0.0 | 0.0 | 0.00 | 0.02 | 0.02 | 77 | 988.4 | |
| 20260506210036 | 61 | 2 | 2.0 | 5.0 | 0.00 | 0.02 | 0.02 | 76 | 988.4 |
| 20260506205016 | 61 | 0.0 | 1.0 | 0.00 | 0.02 | 0.02 | 77 | 988.6 | |
| 20260506204016 | 61 | 70 | 0.0 | 2.0 | 0.00 | 0.02 | 0.02 | 78 | 988.7 |
| 20260506203016 | 61 | 92 | 0.0 | 1.0 | 0.00 | 0.02 | 0.02 | 77 | 988.7 |
| 20260506202036 | 60 | 15 | 0.0 | 4.0 | 0.00 | 0.02 | 0.02 | 78 | 988.9 |
| 20260506201036 | 59 | 288 | 2.0 | 4.0 | 0.00 | 0.02 | 0.02 | 79 | 989.0 |
| 20260506200016 | 59 | 0.0 | 1.0 | 0.00 | 0.02 | 0.02 | 82 | 988.6 | |
| 20260506195016 | 59 | 245 | 0.0 | 1.0 | 0.00 | 0.02 | 0.02 | 82 | 989.2 |
| 20260506194016 | 58 | 282 | 0.0 | 1.0 | 0.00 | 0.02 | 0.02 | 82 | 989.5 |